Theta_e
342 338 333 340 349 345 339 334 331 323 326 335 339 338 345 348 344 341 342 342 344 347 346 346 347 348 350 351 351 351 352 354 353 352 353 354 355 357
339 332 336 347 349 345 339 333 335 331 327 336 340 337 337 345 345 344 343 346 345 346 346 344 345 347 348 349 349 349 350 351 351 351 351 351 352 353
335 338 341 345 349 346 340 335 335 335 332 335 338 341 334 334 342 342 344 346 349 346 344 344 343 345 346 346 346 346 347 348 348 349 350 350 351 351
331 333 333 342 347 346 344 342 340 339 337 335 336 338 339 338 338 337 340 346 349 350 343 342 341 341 342 342 342 342 341 342 343 345 347 348 349 349
341 339 342 345 347 345 343 342 339 340 340 339 339 339 342 342 341 336 339 342 348 350 343 340 340 339 339 338 337 336 333 333 335 336 339 342 344 346
347 345 347 349 349 346 343 343 342 341 342 343 345 343 341 343 341 338 335 339 344 351 351 345 343 340 338 336 336 335 330 328 329 330 332 334 336 340
348 350 351 352 350 348 346 345 343 343 342 343 339 333 332 334 335 338 338 339 339 342 345 346 343 343 343 338 340 339 333 331 329 327 327 327 329 331
335 338 343 348 348 345 343 343 346 344 338 338 339 336 335 332 338 339 336 333 333 342 342 342 347 344 344 344 340 337 334 331 330 328 326 326 327 328
330 330 331 336 334 338 341 341 341 339 341 340 338 335 333 333 337 336 338 336 334 338 340 335 342 341 345 346 337 335 333 331 329 328 328 326 325 324
328 328 327 327 327 330 330 332 338 342 342 340 341 343 338 336 336 336 336 340 339 338 338 332 335 337 340 347 338 335 332 329 328 327 325 323 320 318
328 327 326 324 326 325 321 321 323 325 334 335 333 334 332 332 334 337 336 339 338 337 339 336 337 334 337 340 343 334 330 326 324 325 324 321 319 316
328 327 327 322 319 319 314 314 315 318 324 327 328 331 332 334 332 335 336 335 336 333 338 337 333 333 331 334 341 341 337 322 319 319 320 319 315 325
327 327 325 320 316 315 316 313 313 316 320 320 322 325 329 333 335 337 339 339 336 338 340 339 333 330 330 325 331 336 334 330 329 324 314 314 313 324
319 323 325 318 313 313 314 315 316 318 314 314 315 317 322 327 329 331 335 341 344 342 343 343 334 331 326 321 324 329 335 332 332 334 333 321 311 314
318 319 318 313 313 314 316 317 318 314 312 312 311 313 318 322 324 322 325 325 330 342 347 340 339 332 329 327 323 322 329 332 333 336 334 331 327 322
314 311 314 315 316 316 316 316 315 315 314 314 314 316 318 320 321 323 323 325 322 326 335 343 341 333 329 331 325 323 330 330 334 334 334 333 331 329
306 308 309 309 310 312 313 313 315 316 315 316 315 316 316 318 322 324 324 325 322 324 327 335 341 340 337 333 324 324 324 331 334 334 333 330 332 332
305 305 307 309 310 311 312 314 316 319 318 318 317 316 316 316 317 320 323 323 322 322 322 327 333 334 335 336 336 333 334 335 336 334 330 330 332 334
302 303 305 308 310 311 312 314 314 317 318 318 320 322 323 323 321 320 320 321 322 323 325 325 330 330 326 325 330 330 335 335 336 332 334 333 333 332
305 305 305 306 307 308 309 308 308 310 312 313 314 315 316 319 321 320 319 317 318 320 321 323 328 328 325 325 326 331 320 337 332 332 329 332 330 323
303 303 303 303 303 304 305 305 306 306 307 309 309 311 314 316 317 320 319 313 316 319 317 318 321 325 331 332 326 326 327 314 321 328 329 327 328 324
303 302 303 303 303 303 304 304 304 305 306 307 307 310 312 314 314 314 314 315 315 320 321 324 325 325 328 325 324 324 326 320 314 316 317 322 327 324
303 303 303 303 303 304 304 304 305 305 306 306 307 309 311 311 312 313 314 312 312 314 319 321 324 325 325 327 323 323 323 320 317 319 318 317 318 318
Wind_Speed
11 5 6 1 3 4 4 4 4 3 4 3 1 3 2 5 7 6 7 14 16 14 20 20 22 22 23 22 22 21 22 22 21 21 20 20 21 21
4 6 4 2 5 3 4 4 3 3 3 3 2 4 4 4 7 7 7 10 13 11 20 22 24 24 24 23 22 21 20 21 20 20 20 20 20 20
4 7 6 5 5 4 4 4 4 4 5 4 3 3 5 5 6 5 6 4 6 13 15 20 24 25 24 24 23 22 23 21 20 20 21 21 21 20
9 7 8 4 7 6 4 6 5 6 5 9 4 4 6 6 5 6 6 6 7 10 14 17 20 21 22 22 22 22 21 22 21 22 23 23 23 22
8 7 8 7 9 6 5 6 5 5 6 5 6 4 5 3 4 3 5 5 5 11 12 16 16 18 19 20 21 21 20 19 20 20 21 21 22 22
6 7 8 8 9 7 6 8 7 6 6 6 7 5 4 4 3 4 4 3 5 5 6 6 10 16 19 20 22 21 20 21 22 21 21 21 21 22
7 6 5 7 11 10 5 7 7 7 6 7 7 3 3 3 3 2 4 3 4 5 4 4 4 5 8 14 15 22 21 22 22 22 23 23 23 22
6 7 5 8 7 9 11 14 10 8 6 4 4 6 5 4 3 4 3 1 3 2 3 5 5 7 6 7 15 19 23 24 25 25 24 25 25 25
6 6 6 5 7 7 8 9 9 12 14 4 6 6 5 6 3 3 4 4 4 3 3 4 4 7 6 8 15 19 21 21 23 25 26 26 25 24
6 7 6 7 5 6 6 6 6 6 5 5 9 10 8 5 5 5 5 5 3 3 4 5 4 5 3 7 15 19 19 19 21 24 25 23 20 20
6 5 4 5 4 7 6 7 7 7 7 6 10 11 8 9 6 1 5 4 5 4 6 4 3 4 3 6 6 15 17 19 19 21 22 20 20 19
6 6 4 5 1 5 3 3 6 6 7 10 9 7 7 7 11 9 5 6 5 4 5 6 3 4 3 3 2 1 3 8 12 14 16 17 16 8
3 4 2 4 6 7 5 4 6 6 9 6 7 7 7 6 5 6 8 7 6 8 5 5 4 3 3 2 2 2 3 2 3 4 8 9 13 15
3 3 5 9 8 9 7 9 11 8 4 6 7 8 8 7 7 5 7 9 9 12 6 9 4 5 4 2 3 1 3 3 3 2 3 5 8 14
3 5 8 9 10 9 11 12 12 6 5 7 8 8 9 9 8 6 7 8 8 9 10 8 8 5 5 5 4 4 4 4 6 6 4 4 2 2
8 6 7 10 12 11 9 9 6 6 6 7 9 8 8 7 6 6 7 8 4 7 8 11 12 9 5 8 6 4 5 5 6 7 6 6 6 8
6 3 4 5 6 8 7 8 8 7 7 7 8 9 8 7 7 6 6 8 5 8 6 4 9 11 10 7 5 7 5 4 4 5 6 8 9 11
1 3 6 6 8 8 9 9 8 9 6 6 7 7 8 7 6 5 6 7 8 8 5 5 4 3 3 6 13 8 7 9 8 6 5 6 7 9
2 3 5 6 8 9 9 9 8 9 9 7 6 7 6 5 4 3 4 4 5 6 8 4 6 6 6 7 4 18 10 9 6 7 8 8 7 5
7 8 8 8 9 9 9 9 10 10 9 9 8 8 8 8 6 4 3 3 5 4 4 3 4 5 6 7 6 6 18 8 6 6 4 4 1 2
7 7 7 8 9 9 9 9 10 9 10 10 10 10 9 8 8 4 4 6 5 2 5 5 5 12 4 2 2 2 3 6 6 3 3 4 3 2
6 7 8 8 9 9 9 9 9 9 10 9 10 10 8 8 8 6 4 3 4 5 4 7 8 3 3 5 6 6 4 3 4 12 9 5 6 7
7 7 8 8 8 9 9 9 10 10 10 10 10 10 9 8 8 8 7 5 4 7 7 7 6 2 3 4 6 4 7 5 3 3 3 4 4 1
Wind_Direction
252 300 237 321 250 190 184 170 169 313 301 316 242 266 218 188 208 210 197 227 244 241 226 220 219 217 221 217 217 220 218 213 212 215 214 214 212 214
275 289 275 263 260 189 188 179 181 193 261 253 247 203 219 230 243 250 223 236 245 240 227 217 217 215 216 218 214 214 215 214 208 208 208 211 212 214
219 245 247 256 264 234 188 184 203 181 230 276 253 215 217 215 237 239 241 234 282 275 226 215 215 212 213 215 215 214 217 215 211 208 211 209 208 209
212 218 248 246 257 243 207 211 209 197 206 247 239 248 233 206 222 227 224 222 220 240 218 213 217 214 210 211 213 215 216 216 212 211 211 211 210 210
222 224 239 245 259 252 221 230 224 223 213 229 264 230 251 246 253 250 248 229 236 253 223 215 210 207 218 215 209 210 210 216 217 213 212 212 212 211
255 237 245 240 244 244 235 231 229 237 244 240 254 257 227 244 216 232 274 225 246 239 235 214 207 209 215 211 213 210 210 211 214 217 218 216 216 216
311 297 278 268 262 253 210 238 226 231 230 237 259 224 237 236 212 244 237 261 256 219 231 231 206 216 222 221 226 222 213 219 220 214 215 215 216 216
309 307 301 293 308 298 270 250 228 238 249 216 246 249 245 229 215 210 210 215 285 228 204 238 194 222 219 214 216 221 214 214 213 215 217 216 216 219
287 290 301 305 319 308 301 285 272 246 229 239 241 229 239 208 212 254 240 205 218 248 183 260 187 233 212 221 217 215 220 215 213 218 218 219 217 214
262 280 286 298 354 352 0 359 334 311 286 228 234 250 230 229 203 204 232 253 269 226 174 248 181 236 214 220 215 219 215 217 215 218 219 214 213 208
272 275 303 329 337 27 26 354 335 322 328 318 262 276 283 267 232 230 259 239 266 237 197 204 213 241 210 249 236 213 215 214 215 221 219 210 203 199
288 287 94 156 257 29 15 348 329 299 321 324 319 295 255 246 231 201 213 232 238 295 202 191 189 173 293 275 266 245 216 213 226 224 216 210 196 197
276 299 217 304 302 307 254 252 245 266 293 276 281 283 278 271 253 209 204 212 233 238 218 188 210 185 200 264 286 191 175 189 177 197 203 216 195 200
247 244 237 252 282 293 291 260 268 278 274 278 274 269 266 256 258 236 225 219 231 240 247 194 215 189 177 208 232 242 191 200 166 212 171 139 206 227
327 312 326 317 305 298 282 290 310 297 277 284 280 269 264 263 265 260 260 247 242 240 239 210 218 208 183 208 203 208 163 205 200 199 193 202 202 205
343 320 294 283 275 270 292 288 277 271 264 271 276 276 267 254 246 238 247 257 234 264 233 212 215 199 206 220 194 202 197 200 186 209 204 203 205 206
303 292 309 310 293 286 276 265 267 269 265 262 268 275 275 266 257 245 236 253 236 256 261 237 217 212 221 196 188 211 211 219 213 180 177 213 218 218
315 311 309 300 289 284 279 275 263 263 266 264 269 269 268 267 270 266 247 237 249 256 237 237 210 184 209 234 207 228 204 215 223 187 189 199 230 217
351 308 306 300 296 306 307 308 318 321 313 300 295 297 289 287 278 292 308 271 251 245 252 219 225 217 215 238 246 208 214 215 203 213 208 201 223 211
352 339 326 318 313 310 312 319 308 299 295 295 297 303 298 296 295 288 280 285 303 300 291 248 236 222 200 219 213 229 200 209 186 212 201 205 191 129
329 317 310 307 304 304 303 301 297 293 294 294 287 280 275 275 271 265 295 295 289 284 303 291 249 243 240 149 140 229 157 140 130 200 185 154 178 214
320 317 318 313 308 303 297 293 290 289 287 286 287 285 279 270 271 265 248 266 293 291 276 283 299 302 209 199 220 198 194 143 130 116 78 336 179 193
331 332 325 318 313 308 306 300 289 283 279 276 274 273 270 267 266 257 243 225 238 263 261 279 287 286 261 227 214 211 172 173 170 213 110 12 279 158